#timestamp,LO_Frequency,Hit,StdDev 
1684292415.4,286047000.1,N
1684292435.2,286047000.6,N
1684292455.0,286047002.8,N
1684292455.9,286047002.8,N
1684292475.8,286047002.3,N
1684292495.6,286046999.8,N
1684292515.5,286047000.6,N
1684292535.3,286047000.7,N
1684292555.1,286047000.3,N
1684292575.9,286046999.8,N
1684292595.7,286047002.1,N
1684292615.5,286047002.3,N
1684292635.4,286047001.8,N
1684292655.2,286047002.8,N
1684292675.1,286047000.9,N
1684292676.0,286047000.9,N
1684292695.8,286047000.0,N
1684292715.6,286047002.7,N
1684292735.5,286047002.4,N
1684292755.3,286046999.9,N
1684292775.1,286046998.1,N
1684292795.9,286046999.8,N
1684292815.7,286047002.0,N
1684292835.6,286047004.4,Y
1684292855.4,286047002.0,P
1684292875.2,286047000.5,N
1684292895.1,286046999.7,N
1684292896.0,286046999.7,N
1684292915.8,286046998.2,N
1684292935.7,286046998.2,N
1684292955.5,286047000.4,N
1684292975.3,286047000.0,N
1684292995.2,286046998.9,N
1684293015.9,286046999.3,N
1684293035.7,286046998.5,N
1684293055.6,286046997.3,N
1684293075.4,286046994.9,Y
1684293095.3,286046998.3,P
1684293115.1,286047000.5,N
1684293116.0,286047000.5,N
1684293135.8,286046999.7,N
1684293155.7,286047002.0,N
1684293175.5,286047003.5,Y
1684293195.3,286047003.7,P
1684293215.2,286047003.6,N
1684293235.0,286047005.4,P
1684293235.9,286047005.4,N
1684293255.8,286047004.1,N
1684293275.6,286047003.1,N
1684293295.4,286047003.5,N
1684293315.3,286047002.1,N
1684293335.1,286047000.3,N
1684293355.8,286047002.8,N
1684293375.7,286047000.3,N
1684293395.5,286046999.7,N
1684293415.4,286046999.8,N
1684293435.2,286047002.6,N
1684293455.0,286046999.7,N
1684293455.9,286046999.7,N
1684293475.8,286047000.1,N
1684293495.6,286047002.7,N
1684293515.4,286047001.0,N
1684293535.3,286046999.8,N
1684293555.1,286047002.6,N
1684293575.9,286047002.0,N
1684293595.7,286047001.4,N
1684293615.5,286047001.5,N
1684293635.4,286047002.2,N
1684293655.2,286047002.3,N
1684293675.0,286047000.1,N
1684293675.9,286047000.1,N
1684293695.8,286047000.0,N
1684293715.6,286046999.7,N
1684293735.5,286046999.7,N
1684293755.3,286046999.8,N
1684293775.1,286047000.0,N
1684293795.9,286047000.4,N
1684293815.7,286047002.2,N
1684293835.5,286047002.6,N
1684293855.4,286047002.0,N
1684293875.2,286047000.4,N
1684293895.1,286047000.3,N
1684293896.0,286047000.3,N
1684293915.8,286047002.7,N
1684293935.6,286047002.3,N
1684293955.5,286047002.4,N
1684293975.3,286047002.1,N
1684293995.1,286047002.0,N
1684294015.9,286047001.6,N
1684294035.7,286046999.9,N
1684294055.6,286047001.0,N
1684294075.4,286047002.7,N
1684294095.2,286047002.0,N
1684294115.1,286047004.1,Y
1684294116.0,286047004.1,P
1684294135.8,286047004.2,N
1684294155.7,286047004.3,P
1684294175.5,286047002.4,N
1684294195.3,286047001.2,N
1684294215.2,286047000.9,N
1684294235.0,286047002.3,N
1684294235.9,286047002.3,N
1684294255.7,286047001.5,N
1684294275.6,286047001.3,N
1684294295.4,286047001.6,N
1684294315.3,286047000.0,N
1684294335.1,286046999.0,N
1684294336.0,286046999.0,N
1684294355.8,286046999.0,N
1684294375.7,286046996.7,N
1684294395.5,286046996.5,N
1684294415.3,286046998.9,N
1684294435.2,286046998.3,N
1684294455.0,286046999.6,N
1684294455.9,286046999.6,N
1684294475.8,286046998.5,N
1684294495.6,286047001.2,N
1684294515.4,286046999.6,N
1684294535.3,286047000.6,N
1684294555.1,286046999.9,N
1684294575.8,286046998.9,N
1684294595.7,286046998.3,N
1684294615.5,286047000.0,N
1684294635.4,286047003.9,N
1684294655.2,286047002.0,N
1684294675.0,286047002.4,N
1684294675.9,286047002.4,N
1684294695.8,286047000.9,N
1684294715.6,286046999.5,N
1684294735.4,286046997.3,N
1684294755.3,286046998.7,N
1684294775.1,286047001.1,N
1684294795.9,286047002.4,N
1684294815.7,286046999.9,N
1684294835.5,286047000.4,N
1684294855.4,286047002.2,N
1684294875.2,286047000.5,N
1684294895.1,286046998.7,N
1684294896.0,286046998.7,N
1684294915.8,286047000.9,N
1684294935.6,286047000.1,N
1684294955.5,286047002.6,N
1684294975.3,286047000.7,N
1684294995.1,286047002.6,N
1684295015.9,286047004.3,N
1684295035.7,286046999.7,N
1684295055.6,286047001.7,N
1684295075.4,286047004.1,N
1684295095.2,286047003.1,N
1684295115.1,286047001.4,N
1684295116.0,286047001.4,N
1684295135.8,286047001.9,N
1684295155.6,286047002.0,N
1684295175.5,286047002.5,N
1684295195.3,286047000.2,N
1684295215.2,286047001.7,N
1684295235.9,286047002.4,N
1684295255.7,286047000.2,N
1684295275.6,286047000.4,N
1684295295.4,286047002.2,N
1684295315.2,286047005.6,Y
1684295335.1,286047003.6,P
1684295336.0,286047003.6,P
1684295355.8,286047003.5,P
1684295375.7,286047002.9,N
1684295395.5,286047004.6,Y
1684295415.3,286047002.2,P
1684295435.2,286047002.8,P
1684295455.0,286047002.4,P
1684295455.9,286047002.4,Y
1684295475.8,286046999.4,P
1684295495.6,286046996.5,N
1684295515.4,286046999.4,N
1684295535.3,286046999.5,N
1684295555.1,286046996.9,N
1684295575.8,286046997.4,N
1684295595.7,286046997.2,N
1684295615.5,286046997.4,N
1684295635.4,286046997.1,N
1684295655.2,286046997.5,N
1684295675.0,286046997.2,N
1684295675.9,286046997.2,N
1684295695.8,286046996.7,N
1684295715.6,286046997.7,N
1684295735.4,286046995.4,N
1684295755.3,286046995.4,N
1684295775.1,286046995.5,N
1684295795.9,286046993.6,Y
1684295815.7,286046998.0,P
1684295835.5,286046995.0,P
1684295855.4,286046995.4,P
1684295875.2,286046997.9,N
1684295895.0,286046996.3,N
1684295896.0,286046996.3,Y
1684295915.8,286046998.2,P
1684295935.6,286046998.3,N
1684295955.5,286046999.3,N
1684295975.3,286046999.6,N
1684295995.1,286046999.0,N
